FW6905 Weather Reports


Display with metric or nautical units.
time (UTC)temp
F
wind
direction
speed
MPH
gust
MPH
rain 1hr
in
rain 24hr
in
rain mn
in
humidity
%
barometer
mb
20260506154505 62 244 1.0 2.0 0.00 1.62 1.49 88 1011.7
20260506153505 62 262 2.0 2.0 0.00 1.62 1.49 89 1011.7
20260506152505 62 220 2.0 3.0 0.00 1.62 1.49 89 1012.7
20260506152006 61 217 2.0 3.0 0.00 1.62 1.49 88 1012.7
20260506151505 61 247 2.0 3.0 0.00 1.62 1.49 89 1012.7
20260506151005 61 291 1.0 3.0 0.00 1.66 1.49 89 1012.7
20260506150506 61 286 2.0 4.0 0.00 1.66 1.49 88 1012.7
20260506150005 61 269 2.0 4.0 0.00 1.66 1.49 88 1012.7
20260506145506 61 249 2.0 3.0 0.00 1.66 1.49 88 1012.7
20260506145006 61 249 2.0 3.0 0.00 1.66 1.49 88 1012.7
20260506144505 61 270 2.0 4.0 0.00 1.66 1.49 88 1012.7
20260506144006 61 292 3.0 4.0 0.00 1.66 1.49 88 1012.7
20260506143506 60 325 1.0 2.0 0.00 1.66 1.49 88 1012.7
20260506143005 60 90 0.0 2.0 0.00 1.66 1.49 88 1012.7
20260506142506 60 96 1.0 2.0 0.00 1.66 1.49 88 1012.7
20260506142005 60 335 0.0 2.0 0.00 1.66 1.49 88 1012.7
20260506140005 60 251 0.0 4.0 0.00 1.66 1.49 88 1012.7
20260506135505 60 246 0.0 4.0 0.00 1.66 1.49 88 1012.7
20260506135006 60 278 2.0 5.0 0.00 1.66 1.49 87 1012.7
20260506134505 60 290 2.0 5.0 0.00 1.66 1.49 87 1012.7
20260506133505 60 293 2.0 6.0 0.00 1.66 1.49 87 1013.7
20260506133005 60 308 3.0 6.0 0.04 1.66 1.49 88 1013.7
20260506132505 60 324 3.0 7.0 0.08 1.66 1.49 88 1013.7
20260506131505 60 349 4.0 6.0 0.08 1.66 1.49 88 1013.7
20260506131005 60 306 3.0 6.0 0.08 1.66 1.49 88 1013.7
20260506130505 60 320 4.0 6.0 0.08 1.66 1.49 88 1013.7
20260506130005 60 295 4.0 8.0 0.08 1.66 1.49 88 1013.7
20260506125005 59 300 4.0 8.0 0.12 1.66 1.49 88 1012.7
20260506124505 59 300 2.0 9.0 0.12 1.66 1.49 88 1012.7
20260506123505 59 300 4.0 6.0 0.08 1.66 1.45 88 1012.7
20260506123006 59 292 4.0 6.0 0.08 1.66 1.45 88 1012.7
20260506122505 59 280 3.0 4.0 0.04 1.62 1.41 88 1012.7
20260506122006 59 298 2.0 4.0 0.04 1.62 1.41 88 1012.7
20260506121505 59 274 2.0 5.0 0.08 1.62 1.41 88 1012.7
20260506121005 59 275 1.0 5.0 0.08 1.62 1.41 88 1013.7
20260506120006 59 290 4.0 4.0 0.08 1.62 1.41 88 1013.7
20260506115505 59 268 2.0 4.0 0.04 1.58 1.37 88 1013.7
20260506115005 59 266 2.0 5.0 0.04 1.58 1.37 88 1013.7
20260506114505 59 274 3.0 7.0 0.04 1.58 1.37 88 1013.7
20260506114005 59 272 2.0 9.0 0.04 1.58 1.37 88 1013.7
20260506113005 59 338 3.0 10.0 0.04 1.58 1.37 88 1013.7
20260506112506 59 332 4.0 7.0 0.04 1.58 1.37 88 1013.7
20260506112005 59 303 5.0 8.0 0.04 1.58 1.37 88 1013.7
20260506111505 59 296 6.0 8.0 0.04 1.54 1.33 88 1013.7
20260506110505 59 291 4.0 6.0 0.04 1.54 1.33 88 1013.7
20260506110005 59 279 4.0 6.0 0.04 1.54 1.33 88 1013.7
20260506105505 59 255 3.0 7.0 0.04 1.58 1.33 88 1014.7
20260506105005 59 256 4.0 7.0 0.04 1.58 1.33 88 1014.7
20260506104505 59 244 3.0 7.0 0.04 1.58 1.33 88 1014.7
20260506104005 59 253 2.0 6.0 0.04 1.58 1.33 88 1013.7
20260506103505 59 272 4.0 6.0 0.04 1.58 1.33 88 1013.7
20260506103005 60 273 2.0 6.0 0.04 1.58 1.33 88 1013.7
20260506102505 60 277 2.0 7.0 0.04 1.58 1.33 89 1013.7
20260506102005 60 296 3.0 7.0 0.04 1.58 1.33 89 1013.7
20260506101505 60 299 2.0 6.0 0.00 1.54 1.29 89 1013.7
20260506101005 60 295 4.0 6.0 0.00 1.58 1.29 89 1013.7
20260506100505 60 302 2.0 5.0 0.00 1.58 1.29 90 1013.7
20260506100006 60 281 2.0 6.0 0.00 1.58 1.29 90 1013.7
20260506095505 60 276 2.0 6.0 0.00 1.58 1.29 90 1013.7
20260506095006 60 304 2.0 9.0 0.00 1.58 1.29 91 1013.7
20260506094006 60 322 5.0 7.0 0.05 1.58 1.29 91 1013.7
20260506093505 60 338 3.0 4.0 0.05 1.58 1.29 91 1013.7
20260506093005 59 75 2.0 4.0 0.05 1.58 1.29 91 1013.7
20260506092505 59 72 2.0 4.0 0.05 1.58 1.29 91 1013.7
20260506092005 59 60 2.0 4.0 0.09 1.58 1.29 90 1013.7
20260506091505 59 58 2.0 4.0 0.09 1.58 1.29 91 1013.7
20260506091006 59 64 2.0 4.0 0.09 1.58 1.29 90 1013.7
20260506090505 59 94 2.0 3.0 0.13 1.58 1.29 91 1013.7
20260506090005 59 113 0.0 2.0 0.13 1.58 1.29 92 1013.7
20260506085505 59 62 0.0 2.0 0.17 1.58 1.29 92 1013.7
20260506085005 58 45 0.0 2.0 0.17 1.58 1.29 91 1013.7
20260506084506 58 45 2.0 2.0 0.12 1.53 1.24 91 1013.7
20260506084005 58 7 0.0 2.0 0.12 1.53 1.24 91 1013.7
20260506083505 58 240 0.0 4.0 0.12 1.53 1.24 91 1013.7
20260506083005 58 233 1.0 4.0 0.12 1.53 1.24 91 1013.7
20260506082005 58 253 2.0 2.0 0.12 1.49 1.20 91 1012.7
20260506081505 58 273 1.0 2.0 0.12 1.49 1.20 91 1012.7
20260506081005 58 276 2.0 3.0 0.12 1.49 1.20 91 1012.7
20260506080505 58 282 3.0 3.0 0.08 1.45 1.16 90 1012.7
20260506073004 58 192 0.0 2.0 0.21 1.41 1.12 91 1013.7
20260506072505 58 177 1.0 2.0 0.21 1.37 1.08 91 1013.7
20260506072005 57 134 1.0 2.0 0.29 1.37 1.08 91 1013.7
20260506071505 57 65 1.0 2.0 0.29 1.37 1.08 90 1013.7
20260506071005 57 14 0.0 3.0 0.33 1.37 1.08 90 1013.7
20260506070505 57 25 2.0 4.0 0.38 1.37 1.08 90 1013.7
20260506062505 57 209 0.0 2.0 0.21 1.16 0.87 90 1013.7
20260506061504 57 343 0.0 2.0 0.13 1.08 0.79 90 1013.7
20260506061005 57 270 1.0 2.0 0.09 1.04 0.75 90 1013.7
20260506060505 57 216 1.0 2.0 0.04 0.99 0.70 90 1013.7
20260506051005 56 171 0.0 2.0 0.00 0.95 0.66 90 1013.7
20260506050505 56 157 0.0 2.0 0.00 0.95 0.66 90 1013.7
20260506045005 56 0 0.0 0.0 0.00 0.95 0.66 90 1013.7
20260506044505 56 0 0.0 0.0 0.00 0.95 0.66 90 1013.7
20260506044004 56 112 0.0 2.0 0.00 0.95 0.66 89 1013.7
20260506043505 56 110 0.0 2.0 0.00 0.95 0.66 89 1013.7
20260506043004 56 91 1.0 2.0 0.00 0.95 0.66 89 1013.7
20260506042005 56 47 2.0 2.0 0.00 0.95 0.66 89 1013.7
20260506041505 56 48 0.0 2.0 0.00 0.95 0.66 89 1013.7
20260506041005 56 81 1.0 2.0 0.00 0.95 0.66 89 1013.7
20260506040505 56 113 1.0 2.0 0.00 0.95 0.66 90 1013.7
20260506035505 56 0 0.0 0.0 0.00 0.95 0.66 90 1013.7
20260506034505 56 135 0.0 1.0 0.00 0.95 0.66 90 1013.7
20260506034005 56 138 0.0 2.0 0.00 0.95 0.66 90 1013.7
20260506033006 56 158 0.0 2.0 0.00 0.95 0.66 90 1013.7
20260506032505 56 181 0.0 2.0 0.00 0.95 0.66 90 1013.7
20260506032005 56 181 0.0 2.0 0.00 0.95 0.66 90 1013.7
20260506031505 56 1 1.0 2.0 0.00 0.95 0.66 90 1013.7
20260506031005 56 32 1.0 2.0 0.00 0.95 0.66 89 1013.7
20260506030505 56 112 0.0 2.0 0.00 0.95 0.66 90 1013.7
20260506030005 57 0 0.0 0.0 0.00 0.95 0.66 90 1013.7
20260506025504 57 0 0.0 0.0 0.00 0.95 0.66 90 1012.7
20260506025005 57 100 0.0 2.0 0.00 0.95 0.66 90 1012.7
20260506024504 57 98 0.0 2.0 0.00 0.95 0.66 90 1012.7
20260506024005 57 90 1.0 2.0 0.00 0.95 0.66 90 1013.7
20260506023505 57 298 0.0 2.0 0.00 0.95 0.66 90 1013.7
20260506023005 57 300 0.0 2.0 0.00 0.95 0.66 90 1013.7
20260506022505 56 116 1.0 2.0 0.00 0.95 0.66 90 1013.7
20260506022004 57 111 2.0 2.0 0.00 0.95 0.66 90 1013.7
20260506021505 57 45 0.0 2.0 0.00 0.95 0.66 90 1013.7
20260506021005 57 45 0.0 2.0 0.00 0.95 0.66 90 1013.7
20260506020505 57 45 2.0 2.0 0.00 0.95 0.66 90 1013.7
20260506020005 56 45 1.0 2.0 0.00 0.95 0.66 89 1013.7
20260506015505 56 45 1.0 2.0 0.04 0.95 0.66 90 1013.7
20260506015005 56 341 2.0 2.0 0.04 0.95 0.66 89 1013.7
20260506014005 56 209 0.0 2.0 0.08 0.95 0.66 90 1013.7
20260506013505 56 217 1.0 2.0 0.12 0.95 0.66 89 1013.7
20260506013004 56 225 0.0 2.0 0.20 0.95 0.66 89 1013.7
20260506012505 56 204 0.0 2.0 0.25 0.95 0.66 89 1013.7
20260506012004 56 173 0.0 2.0 0.33 0.95 0.66 89 1013.7
20260506011505 56 134 1.0 2.0 0.37 0.95 0.66 89 1013.7
20260506011004 56 46 0.0 2.0 0.41 0.95 0.66 89 1013.7
20260506010505 56 74 0.0 2.0 0.45 0.95 0.66 89 1013.7
20260506005504 56 90 0.0 2.0 0.46 0.91 0.62 89 1013.7
20260506005006 56 102 0.0 2.0 0.46 0.91 0.62 90 1013.7
20260506004506 56 106 1.0 2.0 0.46 0.91 0.62 90 1013.7
20260506003505 57 111 2.0 2.0 0.41 0.83 0.54 89 1013.7
20260506003005 57 327 0.0 3.0 0.38 0.75 0.46 89 1013.7
20260506002505 57 305 0.0 3.0 0.33 0.70 0.41 89 1013.7
20260506002005 57 233 3.0 3.0 0.29 0.62 0.33 89 1013.7
20260506001005 57 261 2.0 2.0 0.25 0.54 0.25 89 1013.7
20260506000505 57 150 2.0 2.0 0.21 0.50 0.21 89 1013.7
20260506000005 57 85 2.0 4.0 0.21 0.50 0.21 89 1013.7
20260505235505 57 56 2.0 4.0 0.16 0.45 0.16 89 1013.7
20260505235005 57 63 2.0 4.0 0.16 0.45 0.16 89 1013.7
20260505234505 57 56 2.0 4.0 0.16 0.45 0.16 89 1013.7
20260505233504 57 74 2.0 3.0 0.13 0.42 0.13 89 1013.7
20260505233004 57 107 2.0 3.0 0.08 0.37 0.08 89 1013.7
20260505232504 57 116 2.0 4.0 0.04 0.33 0.04 89 1014.7
20260505232005 57 281 0.0 4.0 0.04 0.33 0.04 89 1014.7
20260505231505 57 258 2.0 3.0 0.00 0.29 0.00 88 1014.7
20260505231004 57 189 1.0 2.0 0.00 0.29 0.00 89 1014.7
20260505230505 57 0 0.0 0.0 0.00 0.29 0.00 89 1014.7
20260505230005 57 254 0.0 3.0 0.00 0.29 0.00 89 1014.7
20260505225505 57 257 1.0 3.0 0.00 0.29 0.00 89 1013.7
20260505225005 57 256 2.0 4.0 0.00 0.29 0.00 89 1013.7
20260505224505 57 256 2.0 4.0 0.00 0.29 0.00 89 1013.7
20260505224005 57 278 3.0 4.0 0.00 0.29 0.00 88 1014.7
20260505223505 57 261 2.0 4.0 0.00 0.29 0.00 88 1014.7
20260505223005 57 233 2.0 4.0 0.00 0.29 0.00 88 1014.7
20260505222505 57 260 2.0 4.0 0.00 0.29 0.00 88 1015.7
20260505222005 57 261 2.0 4.0 0.00 0.29 0.00 88 1015.7
20260505221504 57 245 3.0 4.0 0.00 0.29 0.00 88 1015.7
20260505220011 57 257 2.0 4.0 0.00 0.29 0.00 88 1014.7
20260505215506 57 247 3.0 4.0 0.00 0.29 0.29 88 1015.7
20260505214007 57 255 4.0 6.0 0.00 0.29 0.29 89 1015.7
20260505213506 57 267 3.0 6.0 0.00 0.29 0.29 88 1015.7
20260505213007 57 247 4.0 6.0 0.00 0.29 0.29 88 1015.7
20260505212506 57 231 3.0 5.0 0.00 0.29 0.29 89 1015.7
20260505212007 57 234 5.0 5.0 0.00 0.29 0.29 89 1015.7
20260505211506 57 251 3.0 5.0 0.00 0.29 0.29 89 1015.7
20260505211007 57 252 4.0 5.0 0.00 0.29 0.29 88 1015.7
20260505210506 57 243 3.0 5.0 0.00 0.29 0.29 89 1015.7
20260505205506 57 239 2.0 4.0 0.00 0.29 0.29 88 1014.7
20260505205007 57 230 3.0 4.0 0.00 0.29 0.29 88 1014.7
20260505204507 57 223 2.0 4.0 0.00 0.29 0.29 88 1014.7
20260505204007 57 219 2.0 4.0 0.00 0.29 0.29 88 1015.7
20260505203506 57 233 3.0 5.0 0.00 0.29 0.29 88 1015.7
20260505202506 56 237 4.0 5.0 0.00 0.29 0.29 88 1015.7
20260505202007 56 235 4.0 5.0 0.00 0.29 0.29 88 1015.7
20260505201507 56 252 3.0 7.0 0.00 0.29 0.29 88 1015.7
20260505201006 56 263 4.0 7.0 0.00 0.29 0.29 88 1015.7
20260505200507 56 251 3.0 5.0 0.00 0.29 0.29 88 1015.7
20260505200006 56 233 2.0 4.0 0.00 0.29 0.29 88 1015.7
20260505195507 56 233 2.0 4.0 0.00 0.29 0.29 88 1015.7
20260505195006 56 243 2.0 5.0 0.00 0.29 0.29 88 1015.7
20260505194507 56 259 3.0 6.0 0.00 0.29 0.29 88 1015.7
20260505194006 56 265 3.0 6.0 0.00 0.29 0.29 88 1015.7
20260505193506 56 253 4.0 6.0 0.00 0.29 0.29 88 1015.7
20260505192507 56 250 4.0 5.0 0.00 0.29 0.29 88 1014.7
20260505192006 56 259 4.0 7.0 0.00 0.29 0.29 87 1014.7
20260505191506 56 254 4.0 7.0 0.00 0.29 0.29 87 1014.7
20260505191006 56 258 2.0 4.0 0.04 0.29 0.29 87 1015.7
20260505190506 56 259 3.0 4.0 0.04 0.29 0.29 87 1015.7
20260505185007 56 246 2.0 4.0 0.04 0.29 0.29 86 1014.7
20260505184507 56 253 2.0 2.0 0.04 0.29 0.29 86 1014.7
20260505184006 56 268 1.0 2.0 0.04 0.29 0.29 86 1014.7
20260505183506 56 281 1.0 2.0 0.04 0.29 0.29 86 1014.7
20260505182506 56 0 0.0 0.0 0.04 0.29 0.29 86 1014.7
20260505181007 56 197 1.0 2.0 0.00 0.25 0.25 86 1014.7
20260505180506 56 0 0.0 0.0 0.00 0.25 0.25 86 1014.7
20260505180007 56 112 0.0 2.0 0.00 0.25 0.25 86 1014.7
20260505175506 56 107 1.0 2.0 0.00 0.25 0.25 86 1014.7
20260505175006 56 78 1.0 2.0 0.00 0.25 0.25 86 1014.7
20260505174507 56 70 0.0 2.0 0.00 0.25 0.25 86 1014.7
20260505174006 56 86 2.0 2.0 0.00 0.25 0.25 86 1014.7
20260505173507 56 121 1.0 4.0 0.00 0.25 0.25 86 1014.7
20260505173006 56 133 1.0 4.0 0.00 0.25 0.25 86 1014.7
20260505172507 56 98 2.0 2.0 0.00 0.25 0.25 86 1015.7
20260505172006 56 84 1.0 2.0 0.04 0.25 0.25 86 1015.7
20260505171507 56 124 0.0 2.0 0.04 0.25 0.25 86 1015.7
20260505170507 56 137 1.0 2.0 0.04 0.25 0.25 86 1015.7
20260505165507 56 111 1.0 3.0 0.09 0.25 0.25 86 1015.7
20260505165006 56 96 2.0 2.0 0.09 0.25 0.25 86 1015.7
20260505164506 56 131 0.0 2.0 0.09 0.25 0.25 86 1015.7
20260505164007 56 124 0.0 2.0 0.09 0.25 0.25 86 1015.7
20260505163506 56 90 0.0 2.0 0.09 0.25 0.25 86 1015.7
20260505161507 56 123 2.0 3.0 0.05 0.21 0.21 84 1015.7
20260505161006 56 133 2.0 3.0 0.09 0.21 0.21 84 1015.7
20260505160506 56 123 2.0 3.0 0.09 0.21 0.21 84 1015.7